Charleston, SC

6:58 AM EST on February 13, 2016 (GMT -0500)
Charleston Executive

Weather History for KJZI - May, 2014

Change the Weather History Date:

Saturday, May 3, 2014

  Actual Average (KCHS) Record (KCHS)
Temperature  
Mean Temperature 68 °F 69 °F  
Max Temperature 77 °F 80 °F 93 °F (1959)
Min Temperature 60 °F 58 °F 40 °F (1939)
Degree Days  
Heating Degree Days 0 1  
Month to date heating degree days 3  
Since 1 July heating degree days 1966  
Cooling Degree Days 4 5  
Month to date cooling degree days 15  
Year to date cooling degree days 133  
Growing Degree Days 18 (Base 50)    
Moisture  
Dew Point 56 °F    
Average Humidity 67    
Maximum Humidity 88    
Minimum Humidity 38    
Precipitation  
Precipitation 0.00 in 0.10 in 2.35 in (1946)
Month to date precipitation 0.28  
Year to date precipitation 13.57  
Sea Level Pressure  
Sea Level Pressure 29.94 in    
Wind  
Wind Speed 3 mph (WSW)    
Max Wind Speed 12 mph    
Max Gust Speed 20 mph    
Visibility 10 miles    
Events      
T = Trace of Precipitation, MM = Missing Value Source: NWS Daily Summary

Daily Weather History Graph

Daily Weather History Graph

Search for Another Location

Airport or City:

Trip Planner

Search our weather history database for the weather conditions in past years. The results will help you decide how hot, cold, wet, or windy it might be!

Date:

Astronomy

May. 03, 2014 Rise Set
Actual Time 6:31 AM EDT 8:03 PM EDT
Civil Twilight 6:04 AM EDT 8:29 PM EDT
Nautical Twilight 5:33 AM EDT 9:01 PM EDT
Astronomical Twilight 5:00 AM EDT 9:34 PM EDT
Moon 10:02 AM EDT (5/3) No Moon Set
Length of Visible Light 14h 24m
Length of Day
13h 32m
Waxing Crescent, 19% of the Moon is Illuminated
May 3
Waxing Crescent
May 6
First Quarter
May 14
Full
May 21
Last Quarter
May 28
New

Hourly Weather History & Observations

Time (EDT) Temp. Dew Point Humidity Pressure Visibility Wind Dir Wind Speed Gust Speed Precip Events Conditions
12:15 AM 64.4 °F 60.8 °F 88% 29.92 in 10.0 mi Calm Calm - 0.00 in   Overcast
12:35 AM 64.4 °F 60.8 °F 88% 29.93 in 10.0 mi Calm Calm - 0.00 in   Overcast
12:55 AM 64.4 °F 60.8 °F 88% 29.93 in 10.0 mi Calm Calm - 0.00 in   Overcast
1:15 AM 64.4 °F 60.8 °F 88% 29.93 in 10.0 mi Calm Calm - 0.00 in   Overcast
1:35 AM 64.4 °F 60.8 °F 88% 29.92 in 10.0 mi Calm Calm - 0.00 in   Overcast
1:55 AM 64.4 °F 60.8 °F 88% 29.92 in 10.0 mi WNW 3.5 mph - 0.00 in   Overcast
2:15 AM 64.4 °F 60.8 °F 88% 29.93 in 10.0 mi Calm Calm - 0.00 in   Overcast
2:35 AM 64.4 °F 60.8 °F 88% 29.91 in 10.0 mi Calm Calm - 0.00 in   Overcast
2:55 AM 64.4 °F 59.0 °F 83% 29.92 in 10.0 mi West 3.5 mph - 0.00 in   Overcast
3:15 AM 64.4 °F 57.2 °F 77% 29.92 in 10.0 mi Calm Calm - 0.00 in   Overcast
3:35 AM 64.4 °F 55.4 °F 73% 29.92 in 10.0 mi Calm Calm - 0.00 in   Overcast
3:55 AM 64.4 °F 57.2 °F 77% 29.92 in 10.0 mi Calm Calm - 0.00 in   Overcast
4:15 AM 64.4 °F 55.4 °F 73% 29.93 in 10.0 mi Calm Calm - 0.00 in   Overcast
4:35 AM 62.6 °F 55.4 °F 77% 29.93 in 10.0 mi Calm Calm - 0.00 in   Overcast
4:55 AM 62.6 °F 55.4 °F 77% 29.93 in 10.0 mi Calm Calm - 0.00 in   Overcast
5:15 AM 64.4 °F 55.4 °F 73% 29.93 in 10.0 mi Calm Calm - 0.00 in   Overcast
5:35 AM 64.4 °F 55.4 °F 73% 29.93 in 10.0 mi Calm Calm - 0.00 in   Overcast
5:55 AM 62.6 °F 55.4 °F 77% 29.94 in 10.0 mi Calm Calm - 0.00 in   Overcast
6:15 AM 62.6 °F 55.4 °F 77% 29.94 in 10.0 mi Calm Calm - 0.00 in   Overcast
6:35 AM 62.6 °F 55.4 °F 77% 29.93 in 10.0 mi Calm Calm - 0.00 in   Overcast
6:55 AM 62.6 °F 53.6 °F 72% 29.94 in 10.0 mi Calm Calm - 0.00 in   Scattered Clouds
7:15 AM 60.8 °F 55.4 °F 82% 29.94 in 10.0 mi Calm Calm - 0.00 in   Clear
7:35 AM 62.6 °F 55.4 °F 77% 29.94 in 10.0 mi Calm Calm - 0.00 in   Mostly Cloudy
7:55 AM 62.6 °F 55.4 °F 77% 29.94 in 10.0 mi Calm Calm - 0.00 in   Overcast
8:15 AM 62.6 °F 55.4 °F 77% 29.95 in 10.0 mi West 5.8 mph - 0.00 in   Scattered Clouds
8:35 AM 62.6 °F 55.4 °F 77% 29.95 in 10.0 mi WNW 8.1 mph - 0.00 in   Clear
8:55 AM 66.2 °F 55.4 °F 68% 29.94 in 10.0 mi WNW 10.4 mph - 0.00 in   Partly Cloudy
9:15 AM 68.0 °F 55.4 °F 64% 29.95 in 10.0 mi WNW 6.9 mph - 0.00 in   Clear
9:35 AM 69.8 °F 53.6 °F 56% 29.95 in 10.0 mi WNW 8.1 mph - 0.00 in   Clear
9:55 AM 71.6 °F 55.4 °F 57% 29.95 in 10.0 mi West 8.1 mph - 0.00 in   Clear
10:15 AM 69.8 °F 55.4 °F 60% 29.95 in 10.0 mi Calm Calm - 0.00 in   Partly Cloudy
10:35 AM 71.6 °F 55.4 °F 57% 29.96 in 10.0 mi Calm Calm - 0.00 in   Mostly Cloudy
10:55 AM 71.6 °F 53.6 °F 53% 29.95 in 10.0 mi Calm Calm - 0.00 in   Scattered Clouds
11:15 AM 71.6 °F 55.4 °F 57% 29.95 in 10.0 mi WSW 5.8 mph - 0.00 in   Scattered Clouds
11:35 AM 73.4 °F 53.6 °F 50% 29.95 in 10.0 mi West 6.9 mph - 0.00 in   Partly Cloudy
11:55 AM 75.2 °F 51.8 °F 44% 29.95 in 10.0 mi WSW 6.9 mph - 0.00 in   Scattered Clouds
12:15 PM 75.2 °F 48.2 °F 38% 29.95 in 10.0 mi Calm Calm - 0.00 in   Partly Cloudy
12:35 PM 75.2 °F 48.2 °F 38% 29.96 in 10.0 mi WNW 8.1 mph - 0.00 in   Mostly Cloudy
12:55 PM 73.4 °F 50.0 °F 44% 29.96 in 10.0 mi WSW 5.8 mph - 0.00 in   Scattered Clouds
1:15 PM 73.4 °F 51.8 °F 47% 29.96 in 10.0 mi WSW 4.6 mph - 0.00 in   Partly Cloudy
1:35 PM 73.4 °F 53.6 °F 50% 29.96 in 10.0 mi WSW 5.8 mph - 0.00 in   Partly Cloudy
1:55 PM 71.6 °F 53.6 °F 53% 29.97 in 10.0 mi SW 5.8 mph - 0.00 in   Clear
2:15 PM 73.4 °F 55.4 °F 53% 29.94 in 10.0 mi West 4.6 mph - 0.00 in   Scattered Clouds
2:35 PM 75.2 °F 53.6 °F 47% 29.96 in 10.0 mi WSW 8.1 mph - 0.00 in   Mostly Cloudy
2:55 PM 73.4 °F 51.8 °F 47% 29.95 in 10.0 mi WSW 5.8 mph - 0.00 in   Scattered Clouds
3:15 PM 75.2 °F 51.8 °F 44% 29.94 in 10.0 mi West 4.6 mph - 0.00 in   Scattered Clouds
3:35 PM 73.4 °F 51.8 °F 47% 29.95 in 10.0 mi SW 9.2 mph - 0.00 in   Partly Cloudy
3:55 PM 75.2 °F 51.8 °F 44% 29.94 in 10.0 mi SW 9.2 mph - 0.00 in   Partly Cloudy
4:15 PM 75.2 °F 51.8 °F 44% 29.93 in 10.0 mi WSW 8.1 mph 19.6 mph 0.00 in   Clear
4:35 PM 77.0 °F 51.8 °F 41% 29.92 in 10.0 mi SW 9.2 mph - 0.00 in   Partly Cloudy
4:55 PM 75.2 °F 50.0 °F 41% 29.92 in 10.0 mi SW 4.6 mph - 0.00 in   Clear
5:15 PM 75.2 °F 53.6 °F 47% 29.92 in 10.0 mi SSW 10.4 mph - 0.00 in   Clear
5:35 PM 75.2 °F 55.4 °F 50% 29.92 in 10.0 mi SSW 11.5 mph - 0.00 in   Clear
5:55 PM 75.2 °F 53.6 °F 47% 29.92 in 10.0 mi SSW 11.5 mph 18.4 mph 0.00 in   Clear
6:15 PM 73.4 °F 55.4 °F 53% 29.92 in 10.0 mi SSW 10.4 mph - 0.00 in   Clear
6:35 PM 73.4 °F 55.4 °F 53% 29.92 in 10.0 mi SSW 9.2 mph - 0.00 in   Clear
6:55 PM 73.4 °F 57.2 °F 57% 29.92 in 10.0 mi SSW 10.4 mph - 0.00 in   Clear
7:15 PM 71.6 °F 57.2 °F 60% 29.92 in 10.0 mi SSW 8.1 mph - 0.00 in   Clear
7:35 PM 71.6 °F 57.2 °F 60% 29.93 in 10.0 mi SSW 10.4 mph - 0.00 in   Clear
7:55 PM 69.8 °F 57.2 °F 64% 29.93 in 10.0 mi SSW 8.1 mph - 0.00 in   Clear
8:15 PM 68.0 °F 57.2 °F 68% 29.94 in 10.0 mi SSW 8.1 mph - 0.00 in   Clear
8:35 PM 66.2 °F 57.2 °F 73% 29.95 in 10.0 mi SW 5.8 mph - 0.00 in   Clear
8:55 PM 66.2 °F 57.2 °F 73% 29.96 in 10.0 mi SSW 6.9 mph - 0.00 in   Clear
9:15 PM 66.2 °F 59.0 °F 78% 29.97 in 10.0 mi SSW 6.9 mph - 0.00 in   Clear
9:35 PM 66.2 °F 59.0 °F 78% 29.97 in 10.0 mi SW 6.9 mph - 0.00 in   Clear
9:55 PM 64.4 °F 59.0 °F 83% 29.98 in 10.0 mi SSW 4.6 mph - 0.00 in   Clear
10:15 PM 64.4 °F 60.8 °F 88% 29.98 in 10.0 mi Calm Calm - 0.00 in   Clear
10:35 PM 64.4 °F 60.8 °F 88% 29.99 in 10.0 mi Calm Calm - 0.00 in   Clear
10:55 PM 62.6 °F 57.2 °F 82% 29.99 in 10.0 mi Calm Calm - 0.00 in   Clear
11:15 PM 60.8 °F 57.2 °F 88% 29.99 in 10.0 mi Calm Calm - 0.00 in   Clear
11:35 PM 62.6 °F 59.0 °F 88% 30.00 in 10.0 mi Calm Calm - 0.00 in   Clear
11:55 PM 60.8 °F 57.2 °F 88% 30.00 in 10.0 mi Calm Calm - 0.00 in   Clear